User: anonymous   Login
Location: Unspecified
(0.0000°N, 0.0000°E)
Time: 07:07:23
(UTC+00:00)
Language:

USA 274 DEB - Orbit

View from above orbital plane
View from above orbital plane
View from above satellite
View from above satellite

Ground track
Ground track

The orbit data is extracted from the following two-line orbital elements,

1 42065U 17011B   18047.75271925 0.00000000  00000-0  00000-0 0    08
2 42065  63.4398 334.9375 0099000 177.2388 182.7612 13.40747036    02
Epoch (UTC): 16 February 2018 18:03:54
Eccentricity: 0.0099000
inclination: 63.4398°
perigee height: 1032 km
apogee height: 1180 km
right ascension of ascending node: 334.9375°
argument of perigee: 177.2388°
revolutions per day: 13.40747036
mean anomaly at epoch: 182.7612°
orbit number at epoch: 0

The dashed part of the orbit path shows where the satellite is in the earth's shadow,  

DLR